Location: Frankfurt am Main
(50.1109°N, 8.6821°E)
Time: 06:03:10
(UTC+01:00)

ISS - Pass Details

Date: 05 November 2021
Orbit: 417 x 422 km, 51.6° (Epoch: 04 December)

Event Time Altitude Azimuth Distance (km) Brightness Sun altitude
Exits shadow 06:20:17 15° 273° (W) 1,224 -2.0 -10.2°
Maximum altitude 06:22:40 36° 211° (SSW) 679 -2.9 -9.9°
Drops below altitude 10° 06:25:46 10° 143° (SE) 1,492 -0.1 -9.4°
Sets 06:27:57 0° 134° (SE) 2,351 1.2 -9.0°
